Date,TemperatureHighF,TemperatureAvgF,TemperatureLowF,DewpointHighF,DewpointAvgF,DewpointLowF,HumidityHigh,HumidityAvg,HumidityLow,PressureMaxIn,PressureMinIn,WindSpeedMaxMPH,WindSpeedAvgMPH,GustSpeedMaxMPH,PrecipitationSumIn
2013-2-1,45,35,8,35,29,8,100,79,59,30.22,29.92,29,6,29,0.00
2013-2-2,47,37,26,30,23,18,97,58,33,30.27,30.03,46,11,47,0.03
2013-2-3,57,40,25,27,21,13,88,52,19,30.26,29.71,32,7,32,0.00
2013-2-4,51,37,25,32,24,20,87,61,35,30.01,29.73,32,4,32,0.00
2013-2-5,49,41,32,30,27,24,81,58,42,30.03,29.82,23,8,23,0.00
2013-2-6,52,40,28,29,25,22,91,56,38,30.12,29.75,36,8,36,0.00
2013-2-7,51,37,26,25,20,16,77,52,27,30.16,29.99,19,6,19,0.00
2013-2-8,49,35,25,25,22,16,94,61,29,30.05,29.81,20,11,20,0.00
2013-2-9,39,29,21,30,23,18,100,79,51,29.95,29.71,41,16,41,0.00
2013-2-10,31,25,14,28,21,10,100,86,62,30.16,29.69,56,25,56,0.00
2013-2-11,33,20,9,21,13,6,97,74,45,30.21,30.00,15,3,15,0.00
2013-2-12,49,31,16,23,16,5,74,53,32,30.09,29.87,22,4,40,0.00
2013-2-13,49,38,29,30,24,19,93,59,35,30.03,29.73,41,12,41,0.00
2013-2-14,33,25,9,27,16,8,99,72,42,30.45,30.01,50,15,50,0.00
2013-2-15,32,22,12,18,12,7,100,67,37,30.42,30.16,31,7,31,0.00
2013-2-16,56,40,23,28,24,13,79,54,31,30.16,29.83,26,5,26,0.00
2013-2-17,57,38,27,30,23,16,82,56,21,29.89,29.45,45,11,45,0.00
2013-2-18,34,28,23,26,18,14,86,66,51,30.14,29.82,43,21,46,0.00
2013-2-19,23,15,7,16,12,7,100,87,68,30.34,30.15,15,6,15,0.00
2013-2-20,31,22,13,22,16,11,99,77,49,30.15,29.89,27,17,31,0.00
2013-2-21,27,20,14,25,19,14,100,99,87,30.09,30.02,16,6,18,0.02
2013-2-22,37,23,13,29,19,13,100,88,61,30.09,29.87,16,3,24,0.02
2013-2-23,45,32,17,30,16,10,88,57,27,29.90,29.63,16,3,16,0.00
2013-2-24,34,30,22,32,25,17,97,82,56,30.20,29.87,35,13,35,0.00
2013-2-25,48,30,14,21,14,0,95,57,15,30.21,29.80,32,8,32,0.00
2013-2-26,38,24,18,25,15,9,78,67,51,29.98,29.85,30,3,30,0.00
2013-2-27,41,29,17,25,20,17,100,73,42,30.35,30.12,34,12,35,0.00
2013-2-28,41,27,13,29,22,12,100,82,48,30.35,30.13,15,2,15,0.00